Probability
0 0 0 0 0 0 0 0 0 0 10 52 45 23 6 3 0 0 0 0 0 0 0 0 0 0 0 0 0 0 0 0 0 0 0 0 0 0 0 0 0 0 0 0
0 0 0 0 0 0 0 0 0 3 13 32 39 19 6 0 0 0 0 0 0 0 0 0 0 0 0 0 0 0 0 0 0 0 0 0 0 0 0 0 0 0 0 0
0 0 0 0 0 0 0 0 0 0 3 19 19 6 0 0 0 0 0 0 0 0 0 0 0 0 0 0 0 0 0 0 0 0 0 0 0 0 0 0 0 0 0 0
0 0 0 0 0 0 0 0 0 3 3 19 3 0 0 0 0 0 0 0 0 0 0 0 0 0 0 0 0 0 0 0 0 0 0 0 0 0 0 0 0 0 0 0
0 0 0 0 0 0 0 0 0 3 3 3 0 0 0 0 0 0 0 0 0 0 0 0 0 0 0 0 0 0 0 0 0 0 0 0 0 0 0 0 0 0 0 0
0 0 0 0 0 0 0 0 0 0 0 0 0 0 0 0 0 0 0 0 0 0 0 0 0 0 0 0 0 0 0 0 0 0 0 0 0 0 0 0 0 0 0 0
0 0 0 0 0 0 0 0 0 0 0 0 0 0 0 0 0 0 0 0 0 0 0 0 0 0 0 0 0 0 0 0 0 0 0 0 0 0 0 0 0 0 0 0
0 0 0 0 0 0 0 0 0 0 0 0 0 0 0 0 0 0 0 0 0 0 0 0 0 0 0 0 0 0 0 0 0 0 0 0 0 0 0 0 0 0 0 0
0 0 0 0 0 0 0 0 0 0 0 0 0 0 0 0 0 0 0 0 0 0 0 0 0 0 0 0 0 0 0 0 0 0 0 0 0 0 0 0 0 0 0 0
0 0 0 0 0 0 0 0 0 0 0 0 0 0 0 0 0 0 0 0 0 0 0 0 0 0 0 0 0 0 0 0 0 0 0 0 0 0 0 0 0 0 0 0
0 0 0 0 0 0 0 0 0 0 0 0 0 0 0 0 0 0 0 0 0 0 0 0 0 0 0 0 0 0 0 0 0 0 0 0 0 0 0 0 0 0 0 0
0 0 0 0 0 0 0 0 0 0 0 0 0 0 0 0 0 0 0 0 0 0 0 0 0 0 0 0 0 0 0 0 0 0 0 0 0 0 0 0 0 0 0 0
0 0 0 0 0 0 0 0 0 0 0 0 0 0 0 0 0 0 0 0 0 0 0 0 0 0 0 0 0 0 0 0 0 0 0 0 0 0 0 0 0 0 0 0
0 0 0 0 0 0 0 0 0 0 0 0 0 0 0 0 0 0 0 0 0 0 0 0 0 0 0 0 0 0 0 0 0 0 0 0 0 0 0 0 0 0 0 0
0 0 0 0 0 0 0 0 0 0 0 0 0 0 0 0 0 0 0 0 0 0 0 0 0 0 0 0 0 0 0 0 0 0 0 0 0 0 0 0 0 0 0 0
0 0 0 0 0 0 0 0 0 0 0 0 0 0 0 0 0 0 0 0 0 0 0 0 0 0 0 0 0 0 0 0 0 0 0 0 0 0 0 0 0 0 0 0
0 0 0 0 0 0 0 0 0 0 0 0 0 0 0 0 0 0 0 0 0 0 0 0 0 0 0 0 0 0 0 0 0 0 0 0 0 0 0 0 0 0 0 0
0 0 0 0 0 0 0 0 0 0 0 0 0 0 0 0 0 0 0 0 0 0 0 0 0 0 0 0 0 0 0 0 0 0 0 0 0 0 0 0 0 0 0 0
0 0 0 0 0 0 0 0 0 0 0 0 0 0 0 0 0 0 0 0 0 0 0 0 0 0 0 0 0 0 0 0 0 0 0 0 0 0 0 0 0 0 0 0
0 0 0 0 0 0 0 0 0 0 0 0 0 0 0 0 0 0 0 0 0 0 0 0 0 0 0 0 0 0 0 0 0 0 0 0 0 0 0 0 0 0 0 0
0 0 0 0 0 0 0 0 0 0 0 0 0 0 0 0 0 0 0 0 0 0 0 0 0 0 0 0 0 0 0 0 0 0 0 0 0 0 0 0 0 0 0 0
0 0 0 0 0 0 0 0 0 0 0 0 0 0 0 0 0 0 0 0 0 0 0 0 0 0 0 0 0 0 0 0 0 0 0 0 0 0 0 0 0 0 0 0
0 0 0 0 0 0 0 0 0 0 0 0 0 0 0 0 0 0 0 0 0 0 0 0 0 0 0 0 0 0 0 0 0 0 0 0 0 0 0 0 0 0 0 0
0 0 0 0 0 0 0 0 0 0 0 0 0 0 0 0 0 0 0 0 0 0 0 0 0 0 0 0 0 0 0 0 0 0 0 0 0 0 0 0 0 0 0 0
0 0 0 0 0 0 0 0 0 0 0 0 0 0 0 0 0 0 0 0 0 0 0 0 0 0 0 0 0 0 0 0 0 0 0 0 0 0 0 0 0 0 0 0
0 0 0 0 0 0 0 0 0 0 0 0 0 0 0 0 0 0 0 0 0 0 0 0 0 0 0 0 0 0 0 0 0 0 0 0 0 0 0 0 0 0 0 0
0 0 0 0 0 0 0 0 0 0 0 0 0 0 0 0 0 0 0 0 0 0 0 0 0 0 0 0 0 0 0 0 0 0 0 0 0 0 0 0 0 0 0 0
Height
5745 5746 5748 5750 5752 5754 5756 5758 5761 5761 5762 5763 5765 5767 5768 5768 5769 5769 5769 5769 5769 5768 5768 5767 5766 5765 5763 5762 5760 5758 5756 5754 5751 5748 5744 5741 5737 5733 5729 5725 5720 5716 5711 5707
5737 5739 5740 5742 5743 5745 5748 5750 5752 5753 5754 5755 5756 5757 5758 5759 5759 5759 5759 5759 5758 5757 5756 5755 5754 5752 5751 5749 5747 5746 5744 5741 5738 5735 5731 5727 5723 5719 5715 5711 5706 5702 5697 5693
5730 5731 5732 5734 5734 5736 5738 5740 5743 5744 5745 5745 5746 5747 5748 5748 5748 5748 5748 5747 5747 5745 5744 5743 5741 5740 5738 5736 5735 5733 5730 5728 5725 5721 5717 5713 5709 5705 5701 5697 5692 5688 5683 5679
5723 5724 5725 5726 5726 5727 5729 5730 5732 5733 5735 5735 5736 5737 5737 5737 5737 5737 5736 5736 5735 5734 5732 5731 5729 5727 5726 5724 5722 5720 5717 5714 5711 5707 5703 5699 5695 5691 5687 5683 5679 5675 5670 5666
5717 5717 5718 5717 5718 5719 5721 5721 5722 5724 5725 5726 5726 5726 5727 5727 5727 5727 5726 5725 5724 5723 5721 5720 5718 5716 5714 5712 5709 5707 5704 5700 5697 5693 5689 5685 5681 5678 5674 5670 5666 5662 5658 5654
5712 5712 5711 5711 5711 5711 5714 5714 5714 5714 5715 5717 5717 5718 5718 5717 5717 5716 5716 5715 5714 5713 5711 5710 5707 5705 5702 5700 5697 5694 5691 5687 5683 5680 5676 5672 5669 5665 5661 5657 5653 5649 5645 5641
5707 5706 5705 5706 5705 5706 5708 5708 5707 5707 5707 5708 5709 5709 5709 5708 5708 5707 5707 5706 5705 5704 5702 5700 5697 5694 5691 5688 5685 5682 5678 5674 5671 5667 5663 5659 5656 5652 5648 5644 5640 5637 5633 5629
5703 5703 5703 5701 5701 5702 5702 5701 5701 5701 5701 5701 5701 5701 5701 5701 5700 5700 5699 5698 5696 5694 5692 5690 5687 5684 5681 5677 5674 5670 5666 5662 5658 5654 5651 5647 5644 5640 5636 5632 5629 5625 5622 5618
5701 5701 5698 5697 5697 5697 5697 5697 5696 5696 5696 5696 5696 5695 5695 5694 5693 5692 5691 5689 5688 5685 5683 5680 5677 5673 5670 5666 5662 5658 5654 5650 5647 5643 5640 5636 5632 5628 5625 5621 5617 5614 5611 5607
5697 5695 5694 5693 5693 5692 5692 5692 5692 5691 5691 5690 5690 5689 5688 5687 5686 5685 5683 5681 5679 5676 5674 5670 5667 5663 5660 5656 5652 5648 5644 5640 5636 5633 5629 5625 5621 5617 5614 5610 5607 5604 5601 5598
5693 5692 5691 5689 5689 5688 5688 5687 5687 5686 5685 5684 5684 5683 5682 5680 5679 5677 5675 5673 5671 5668 5665 5662 5658 5654 5651 5647 5642 5638 5634 5630 5626 5622 5618 5614 5611 5608 5604 5601 5598 5595 5592 5589
5690 5688 5687 5686 5684 5683 5683 5682 5681 5680 5679 5678 5677 5676 5675 5674 5672 5671 5669 5666 5664 5661 5658 5655 5651 5647 5643 5638 5634 5629 5624 5620 5616 5612 5609 5605 5602 5599 5596 5594 5591 5588 5585 5583
5685 5684 5683 5681 5680 5679 5678 5677 5676 5675 5674 5673 5672 5671 5670 5669 5667 5666 5664 5662 5659 5656 5652 5648 5644 5640 5635 5630 5625 5620 5616 5612 5608 5604 5601 5598 5595 5593 5590 5588 5586 5584 5581 5579
5682 5681 5679 5678 5676 5675 5673 5672 5671 5670 5670 5669 5669 5668 5667 5666 5664 5663 5660 5658 5655 5651 5647 5643 5638 5632 5627 5622 5617 5612 5608 5604 5601 5597 5594 5592 5590 5588 5586 5585 5583 5581 5579 5577
5679 5678 5676 5675 5673 5672 5670 5669 5668 5668 5667 5667 5667 5666 5665 5664 5663 5661 5658 5655 5651 5647 5642 5637 5632 5626 5621 5616 5610 5606 5602 5598 5595 5592 5590 5588 5587 5586 5584 5583 5581 5580 5578 5577
5677 5675 5674 5673 5672 5670 5669 5668 5667 5667 5666 5666 5666 5665 5664 5663 5662 5659 5656 5653 5649 5644 5639 5634 5628 5622 5616 5611 5606 5601 5598 5595 5592 5590 5588 5587 5586 5585 5584 5583 5582 5581 5580 5579
5675 5674 5673 5672 5671 5670 5668 5668 5667 5667 5666 5666 5666 5665 5665 5663 5661 5659 5655 5652 5647 5643 5637 5632 5626 5620 5614 5609 5604 5600 5597 5594 5592 5590 5589 5587 5586 5586 5585 5584 5584 5583 5583 5583
5673 5673 5672 5671 5670 5669 5668 5668 5668 5667 5667 5667 5667 5666 5665 5664 5661 5659 5655 5652 5647 5642 5637 5631 5625 5620 5614 5609 5605 5601 5598 5596 5594 5592 5591 5590 5589 5589 5588 5588 5587 5587 5587 5588
5671 5671 5671 5670 5670 5669 5669 5669 5669 5669 5669 5669 5668 5667 5666 5664 5662 5660 5656 5652 5648 5643 5638 5632 5627 5622 5617 5612 5608 5605 5602 5600 5598 5596 5595 5594 5593 5593 5592 5592 5592 5592 5592 5593
5670 5670 5670 5670 5670 5669 5669 5670 5670 5670 5670 5670 5670 5669 5668 5666 5664 5661 5658 5654 5650 5645 5640 5635 5630 5625 5621 5616 5613 5609 5607 5604 5603 5601 5600 5599 5599 5598 5598 5597 5597 5597 5597 5597
5668 5669 5670 5670 5670 5670 5670 5671 5671 5672 5672 5672 5671 5670 5669 5668 5666 5663 5660 5657 5653 5648 5644 5639 5634 5630 5625 5621 5618 5615 5612 5610 5608 5607 5606 5605 5604 5604 5603 5603 5602 5602 5602 5602
5667 5668 5669 5670 5670 5670 5671 5672 5673 5673 5673 5673 5673 5672 5672 5670 5668 5666 5663 5660 5656 5652 5648 5643 5639 5635 5631 5627 5623 5620 5617 5615 5613 5612 5611 5610 5610 5609 5608 5608 5607 5606 5606 5606
5666 5667 5669 5669 5670 5671 5672 5673 5674 5674 5675 5675 5675 5674 5674 5672 5671 5669 5666 5663 5660 5656 5652 5648 5644 5639 5636 5631 5628 5624 5621 5619 5618 5617 5616 5615 5615 5614 5613 5612 5611 5610 5609 5609
5665 5666 5668 5669 5670 5671 5672 5673 5674 5675 5676 5676 5676 5676 5675 5674 5673 5671 5669 5666 5663 5660 5656 5652 5648 5644 5640 5636 5632 5628 5625 5623 5621 5620 5620 5619 5619 5618 5617 5616 5615 5614 5612 5612
5663 5665 5667 5668 5670 5671 5672 5673 5674 5675 5676 5677 5677 5677 5677 5676 5675 5673 5672 5669 5667 5664 5660 5657 5653 5649 5645 5640 5636 5632 5629 5626 5624 5624 5623 5623 5622 5621 5620 5619 5618 5617 5616 5615
5661 5663 5666 5668 5669 5670 5671 5673 5674 5675 5676 5677 5678 5678 5678 5677 5676 5675 5674 5672 5670 5667 5664 5661 5657 5654 5650 5646 5641 5637 5633 5630 5628 5627 5627 5626 5626 5625 5624 5623 5622 5621 5620 5619
5659 5662 5664 5666 5668 5669 5671 5672 5673 5675 5676 5677 5678 5679 5679 5679 5678 5677 5676 5675 5673 5671 5668 5665 5662 5659 5655 5652 5648 5644 5640 5637 5634 5632 5631 5630 5629 5628 5627 5626 5625 5625 5624 5623
Wind_Speed
24 25 25 26 27 28 31 32 32 33 34 35 34 34 34 34 35 36 36 37 38 39 40 41 43 43 44 44 45 45 45 46 46 48 50 51 53 53 52 52 53 53 54 55
24 26 28 29 30 31 32 33 35 36 37 37 37 37 37 38 39 40 41 41 42 44 45 46 46 46 46 46 45 45 46 47 48 50 51 52 52 52 52 52 53 54 55 55
21 24 26 29 32 32 34 34 35 37 38 38 38 39 39 40 41 43 43 44 44 45 45 45 44 43 42 42 43 44 46 48 50 51 51 51 51 52 53 53 53 54 54 54
18 19 23 29 29 31 33 35 36 37 37 38 38 39 39 39 39 40 40 40 39 39 40 40 40 40 41 42 43 45 47 49 50 50 51 51 51 52 52 52 52 53 53 54
15 17 20 24 25 28 30 33 33 35 35 35 36 37 37 37 37 38 36 36 36 37 38 37 38 39 40 42 44 46 48 49 49 49 50 50 50 50 51 51 51 52 52 52
13 14 18 19 19 21 24 27 28 29 30 30 30 32 32 33 33 33 32 32 34 35 37 39 40 41 42 44 45 46 46 47 47 48 48 49 49 50 50 49 49 49 49 49
11 13 15 14 15 17 20 22 23 24 25 26 28 28 28 28 29 31 32 33 35 36 38 39 40 41 42 42 43 44 45 46 47 47 48 48 47 47 46 46 46 46 46 46
11 12 13 12 13 16 19 20 21 22 22 23 24 25 27 28 29 30 31 32 33 35 36 37 38 39 41 42 43 43 44 44 44 43 43 43 43 43 43 43 44 44 44 44
11 11 11 11 12 14 16 18 20 21 22 23 24 25 26 27 29 30 31 32 33 34 35 36 38 39 39 39 40 40 40 39 39 39 39 40 40 41 41 42 42 41 40 39
11 11 11 11 12 13 15 17 19 20 21 22 24 25 26 27 28 29 30 31 32 33 34 34 35 35 35 35 35 35 35 36 37 37 38 38 38 38 38 38 37 36 34 33
11 12 12 13 13 14 15 16 18 19 21 22 24 25 25 26 26 26 27 27 28 29 29 29 29 30 30 30 31 32 34 34 35 36 35 35 35 34 33 32 31 30 28 27
11 11 12 13 13 14 15 16 17 19 20 21 21 21 21 21 21 21 21 22 22 23 23 24 25 25 27 28 30 31 32 33 33 32 31 30 29 28 27 25 24 22 21 20
11 11 11 11 11 12 12 13 14 15 16 16 16 16 15 15 15 15 16 16 18 19 20 21 23 25 27 29 30 30 30 29 28 27 25 24 23 21 19 17 16 15 14 12
10 10 10 9 9 9 9 9 9 10 10 10 10 10 10 10 10 11 12 13 15 17 20 22 25 26 27 27 27 26 25 24 22 21 19 17 15 13 12 11 10 8 7 6
9 8 7 6 7 6 5 5 5 5 4 4 5 6 6 7 8 9 10 13 16 18 21 23 24 24 24 24 23 22 20 18 16 14 12 10 8 7 6 5 5 4 4 5
8 7 5 5 5 4 3 3 2 1 1 1 1 2 3 4 6 9 11 14 16 19 20 21 22 22 22 20 18 16 14 12 10 7 6 4 4 3 3 4 5 6 8 11
6 5 4 4 4 3 3 3 3 3 3 3 3 3 4 6 8 11 13 15 17 18 19 20 21 21 19 17 15 13 11 9 7 6 5 5 5 6 7 8 10 11 13 14
4 3 3 3 2 2 3 4 4 5 5 6 6 6 6 8 10 12 14 16 17 19 20 21 21 21 20 18 16 13 12 10 9 9 9 9 10 11 12 12 13 14 15 16
3 3 3 2 1 3 4 5 6 6 7 7 7 7 8 10 12 13 15 16 18 20 21 22 22 21 20 19 17 15 14 13 12 12 12 13 14 14 15 15 15 16 16 16
4 2 2 2 3 4 5 6 7 7 7 7 7 8 9 10 12 13 15 17 19 21 22 23 23 22 21 20 18 17 16 15 15 15 15 16 16 16 16 16 16 15 15 15
4 4 4 4 4 5 6 6 7 7 7 7 7 8 9 10 12 13 15 17 19 21 22 23 23 23 22 20 19 18 17 16 16 16 16 16 16 16 16 16 15 14 14 13
6 6 6 6 6 6 6 7 7 7 7 7 7 8 8 9 11 13 15 16 19 21 22 23 23 23 22 21 19 17 16 15 15 15 15 15 15 15 14 14 13 12 12 11
8 8 7 7 7 7 7 7 7 7 6 6 6 6 7 9 11 13 14 16 18 20 21 23 23 22 21 20 19 18 15 13 13 13 13 13 13 13 13 12 12 11 11 10
11 10 10 9 9 8 8 8 8 7 6 6 5 5 5 7 9 11 13 15 17 18 20 21 23 23 22 21 19 18 16 13 12 12 12 12 12 12 12 12 12 11 11 10
13 12 12 11 10 9 9 9 8 8 6 5 4 3 4 5 7 9 11 13 15 17 18 20 21 22 23 23 21 19 16 14 12 11 11 11 11 11 11 12 12 12 12 11
15 14 14 12 11 10 10 9 9 9 8 6 5 3 3 4 6 8 9 11 13 15 17 18 19 21 22 24 23 22 19 16 14 12 12 11 11 11 11 11 12 12 13 13
16 16 15 14 12 11 10 10 10 10 9 8 6 5 3 3 4 6 8 10 11 14 15 17 18 19 20 22 24 24 24 22 20 17 15 14 13 12 12 12 12 13 13 14
Wind_Direction
244 241 238 238 237 237 238 240 244 249 253 256 257 258 259 260 262 263 264 266 267 269 270 270 270 270 271 273 275 277 281 284 286 288 290 291 292 293 293 294 293 292 292 291
251 249 247 245 243 242 242 244 247 251 254 257 259 260 260 261 263 264 266 267 269 271 271 271 270 270 271 273 276 278 281 283 285 288 289 289 290 291 291 291 290 290 289 290
259 254 252 250 248 247 248 248 249 252 255 257 258 260 260 261 262 264 265 267 269 268 268 269 269 270 271 275 278 280 282 284 286 287 288 288 288 289 289 288 288 288 289 290
269 261 252 250 251 250 249 250 251 253 255 256 258 258 258 259 260 261 262 262 263 264 267 269 273 276 279 281 281 282 283 284 285 286 286 286 287 287 287 287 288 288 289 291
274 266 260 259 253 250 252 253 254 256 257 259 260 260 259 259 259 259 259 261 265 270 272 276 279 280 280 280 281 282 283 284 284 285 285 286 286 286 286 287 288 289 290 292
282 270 264 264 258 252 251 253 255 256 256 255 256 256 257 258 258 261 265 268 270 272 275 278 280 281 281 282 283 284 284 285 285 285 285 286 286 287 287 288 289 290 291 292
289 275 269 268 259 251 246 246 249 251 252 252 252 253 258 261 264 266 269 271 273 275 277 279 281 282 283 284 285 285 285 285 285 285 286 287 287 288 289 290 291 291 293 294
292 282 277 271 260 253 249 248 250 254 257 258 260 262 264 267 269 271 273 275 277 278 280 281 283 284 285 286 286 286 286 286 286 286 286 287 288 289 290 291 292 293 294 295
296 289 283 275 267 260 256 255 257 260 263 265 267 269 271 273 275 277 278 279 280 282 283 285 286 287 288 288 288 287 287 287 287 287 288 289 290 291 292 293 294 295 296 296
298 290 286 280 274 267 262 264 266 268 269 271 273 274 275 277 278 280 281 282 284 286 287 288 288 289 289 289 288 288 288 289 289 290 291 292 294 294 295 295 296 296 296 295
299 292 288 284 279 274 272 270 271 273 275 277 278 280 281 282 282 283 284 285 287 288 288 289 290 290 290 291 292 292 293 294 294 295 295 296 296 296 296 296 296 297 297 296
299 295 290 288 284 280 276 274 274 276 278 278 280 282 283 285 286 287 288 290 291 292 293 294 295 296 297 298 298 298 298 298 298 298 298 297 297 296 296 296 298 299 299 299
304 301 298 295 291 287 282 278 277 277 278 279 281 284 286 289 291 292 295 297 298 300 302 304 305 305 305 304 304 303 302 301 300 300 300 299 299 298 299 300 302 304 307 308
310 310 309 305 303 299 290 282 280 279 280 278 280 283 288 293 299 303 306 309 311 313 314 314 313 312 312 311 309 308 307 305 303 303 302 302 302 303 305 309 312 318 326 335
313 317 317 317 319 315 304 296 292 284 281 281 283 285 297 307 316 322 325 325 326 325 325 324 323 322 321 320 318 317 315 312 311 309 307 307 309 312 318 327 341 1 29 67
313 320 322 329 337 344 3 10 3 7 336 316 317 334 346 348 347 345 344 342 341 340 338 337 337 336 335 335 334 334 332 332 332 333 334 339 348 4 27 47 60 71 85 95
310 319 322 333 345 9 42 57 67 75 81 82 76 63 43 24 12 6 2 359 357 355 354 354 354 354 355 356 357 358 2 9 18 26 36 49 63 74 78 80 85 90 94 98
298 311 307 323 353 44 68 79 82 86 86 88 86 72 53 36 25 18 14 10 9 8 9 9 9 11 14 18 21 26 32 40 48 57 68 76 81 83 85 87 90 93 96 98
276 295 283 277 74 86 89 90 92 95 96 94 85 69 53 40 31 25 21 21 20 21 21 20 22 23 26 30 35 41 48 55 63 72 77 81 84 85 85 87 90 94 95 95
246 256 236 191 139 116 110 107 106 106 102 94 81 66 53 43 35 31 30 30 30 29 29 29 31 33 36 39 44 50 56 62 70 76 80 83 84 84 85 87 89 91 93 93
220 212 199 176 148 132 126 124 122 117 107 95 80 67 56 48 41 38 36 36 35 34 34 34 36 37 39 42 46 51 57 64 71 77 80 83 84 83 83 84 85 87 89 90
206 198 191 176 158 145 140 138 134 125 114 100 85 71 62 53 47 43 41 40 39 38 37 37 37 39 40 42 46 50 55 62 70 77 80 82 82 82 81 81 80 81 84 88
200 195 189 179 168 157 151 149 146 135 124 110 95 79 68 58 52 46 43 40 40 39 39 38 37 38 38 40 43 46 52 61 71 78 80 81 80 80 79 77 75 75 79 86
199 195 191 184 176 168 162 160 159 151 140 129 114 94 77 65 56 47 42 40 40 40 39 39 39 38 38 39 40 43 48 59 72 79 81 81 81 79 77 74 72 72 76 84
201 198 193 189 185 179 175 173 171 169 161 154 144 122 93 71 57 47 42 40 40 40 39 39 39 39 39 40 40 43 47 57 71 81 84 82 80 78 76 74 72 72 75 82
202 200 199 196 194 191 188 186 184 183 180 176 172 159 123 84 63 51 43 41 40 40 40 40 41 42 43 44 44 47 51 58 70 81 85 82 79 77 77 75 75 75 78 83
204 202 201 200 199 196 195 195 195 194 193 190 188 184 166 113 76 60 50 45 43 43 43 43 44 45 47 49 50 52 56 61 67 75 80 79 78 76 77 79 80 81 83 85